Flag for U.S.A. Weather past 2 weeks in Shiprock, New Mexico, U.S.A.

Now
65 °F

Sunny.


Feels Like: 65 °F
Forecast: 47 / 84 °F
Wind: 5 mph from East

Location: Four Corners Regional Airport

Current Time: May 30, 2015 at 10:59:34 AM

Latest Report: May 30, 2015 at 9:53 AM


Visibility: 10 mi

Pressure: 30.14 "Hg

Humidity: 39%

Dew point: 39 °F

Location of ShiprockLocation

Historic Weather in Shiprock — Graph

°F

Shiprock temperature yesterday

Maximum temperature yesterday: 78 °F (at 4:53 PM)
Minimum temperature yesterday: 45 °F (at 5:53 AM)
Average temperature yesterday: 63 °F

Past Weeks' High & Low Weather Summary

 TemperatureHumidityPressure
High79 °F (May 28, 2:53 PM)97% (May 16, 12:53 AM)30.14 "Hg (May 16, 12:53 AM)
Low38 °F (May 17, 4:53 AM)9% (May 20, 5:53 PM)29.68 "Hg (May 15, 5:53 PM)
Average57 °F53%29.93 "Hg
* Reported May 15 9:53 AM — May 30 9:53 AM, Shiprock, Weather by CustomWeather, © 2015

Note: Actual official high and low records may vary slightly from our data, if they occured in-between our weather recording intervals... More about our weather records

Advertising

Shiprock weather history for previous 24 hours

 ConditionsComfort  
Time TempWeatherWind HumidityBarometerVisibility
9:53 AM
Sat, May 30
65 °FSunny.5 mph39%30.14 "Hg10 mi
8:53 AM60 °FSunny.7 mph38%30.14 "Hg10 mi
7:53 AM55 °FSunny.7 mph45%30.13 "Hg10 mi
6:53 AM49 °FClear.9 mph57%30.13 "Hg10 mi
5:53 AM42 °FClear.6 mph62%30.12 "Hg10 mi
4:53 AM46 °FClear.No wind54%30.09 "Hg10 mi
3:53 AM44 °FClear.5 mph55%30.09 "Hg10 mi
2:53 AM49 °FClear.3 mph43%30.07 "Hg10 mi
1:53 AM51 °FClear.7 mph33%30.06 "Hg10 mi
12:53 AM54 °FClear.5 mph29%30.05 "Hg10 mi
11:53 PM
Fri, May 29
57 °FClear.No wind26%30.04 "Hg10 mi
10:53 PM57 °FClear.8 mph29%30.03 "Hg10 mi
9:53 PM61 °FClear.7 mph25%30.03 "Hg10 mi
8:53 PM65 °FSunny.6 mph24%30.01 "Hg10 mi
7:53 PM73 °FSunny.12 mph17%29.98 "Hg10 mi
6:53 PM76 °FSunny.12 mph16%29.98 "Hg10 mi
5:53 PM78 °FSunny.14 mph15%29.98 "Hg10 mi
4:53 PM78 °FSunny.15 mph15%29.97 "Hg10 mi
3:53 PM77 °FSunny.21 mph16%29.99 "Hg10 mi
2:53 PM77 °FSunny.18 mph16%30.00 "Hg10 mi
1:53 PM75 °FSunny.17 mph15%30.03 "Hg10 mi
12:53 PM74 °FSunny.16 mph18%30.04 "Hg10 mi
11:53 AM72 °FSunny.N/A26%30.05 "Hg10 mi
10:53 AM68 °FSunny.5 mph36%30.06 "Hg10 mi
Weather by CustomWeather, © 2015

See weather overviewHow to use our weather pages